[Iaude] MPEC N05: 2024 MT1 [a=1.14,e=0.57,i=7.3,H=23.0]
    mpec at cfa.harvard.edu 
    mpec at cfa.harvard.edu
       
    Mon Jul  1 07:09:06 EDT 2024
    
    
  
M.P.E.C. 2024-N05                                  Issued 2024 July 1, 11:07 UT
     The Minor Planet Electronic Circulars contain information on unusual
         minor planets, routine data on comets and natural satellites,
         and occasional editorial announcements.  They are published
    on behalf of Division F of the International Astronomical Union by the
          Minor Planet Center, Smithsonian Astrophysical Observatory,
                          Cambridge, MA 02138, U.S.A.
			  
             Prepared using the Tamkin Foundation Computer Network
                              MPC at CFA.HARVARD.EDU
            URL https://www.minorplanetcenter.net/    ISSN 1523-6714
                                    2024 MT1                                    
Observations:
     K24M01T* C2024 06 29.23612219 54 33.478-25 00 46.87         18.48oVEN005W68
     K24M01T  C2024 06 29.23927919 54 33.084-25 00 40.61         18.19oVEN005W68
     K24M01T  C2024 06 29.24473419 54 32.302-25 00 30.46         18.49oVEN005W68
     K24M01T  C2024 06 29.25023219 54 31.658-25 00 18.14         18.60oVEN005W68
     K24M01T  C2024 06 30.06261019 53 09.41 -24 29 08.8                WEN005X09
     K24M01T  C2024 06 30.06613519 53 08.91 -24 29 00.4                WEN005X09
     K24M01T KB2024 06 30.27414 19 52 38.822-24 22 12.11         18.0 RZEN005H36
     K24M01T KB2024 06 30.28008 19 52 37.826-24 21 56.70         18.3 RZEN005H36
     K24M01T KB2024 06 30.28565 19 52 36.934-24 21 42.30         18.3 RZEN005H36
     K24M01T KB2024 06 30.29088 19 52 36.038-24 21 29.27         18.2 RZEN005H36
     K24M01T KC2024 06 30.45333 19 52 17.52 -24 11 59.7          18.6 VqEN005E94
     K24M01T KC2024 06 30.45927 19 52 16.52 -24 11 44.2          18.6 VqEN005E94
     K24M01T KC2024 06 30.46520 19 52 15.54 -24 11 28.4          18.5 VqEN005E94
     K24M01T 0B2024 06 30.85341 19 51 23.333-23 52 48.18         18.8 VZEN005M49
     K24M01T 0B2024 06 30.86763 19 51 20.786-23 52 07.28         18.6 VZEN005M49
     K24M01T 0B2024 06 30.88244 19 51 18.077-23 51 24.05         18.4 VZEN005M49
     K24M01T bC2024 06 30.92781319 51 08.76 -23 50 56.8          18.3 GVEN005L01
     K24M01T bC2024 06 30.92949619 51 08.44 -23 50 51.4          18.5 GVEN005L01
     K24M01T bC2024 06 30.93117919 51 08.18 -23 50 46.2          18.3 GVEN005L01
     K24M01T bC2024 06 30.93286319 51 07.80 -23 50 41.4          18.6 GVEN005L01
     K24M01T bC2024 06 30.93454619 51 07.47 -23 50 36.5          18.3 GVEN005L01
     K24M01T KB2024 07 01.02145119 50 52.50 -23 46 01.5          18.4 GXEN005958
     K24M01T KB2024 07 01.02637819 50 51.54 -23 45 46.5          18.2 GXEN005958
     K24M01T KB2024 07 01.03090919 50 50.52 -23 45 32.8          18.3 GXEN005I93
     K24M01T KB2024 07 01.03132019 50 50.53 -23 45 30.5          18.8 GXEN005958
     K24M01T KB2024 07 01.03294919 50 50.12 -23 45 26.3          18.6 GXEN005I93
     K24M01T KB2024 07 01.03479819 50 49.75 -23 45 20.5          18.2 GXEN005I93
     K24M01T KB2024 07 01.03664619 50 49.39 -23 45 14.7          18.3 GXEN005I93
     K24M01T  C2024 07 01.11064519 50 32.117-23 38 53.05         18.24oVEN005M22
     K24M01T  C2024 07 01.12933619 50 28.402-23 37 47.32         18.31oVEN005M22
     K24M01T  C2024 07 01.13239719 50 27.842-23 37 36.34         18.21oVEN005M22
     K24M01T |C2024 07 01.16592019 50 31.760-23 35 58.40         18.6 GVEN005807
     K24M01T |C2024 07 01.16812019 50 31.310-23 35 51.20         18.4 GVEN005807
     K24M01T |C2024 07 01.17032019 50 30.840-23 35 44.20         18.4 GVEN005807
     K24M01T |C2024 07 01.17252019 50 30.400-23 35 36.90         18.2 GVEN005807
Observer details:
807 Cerro Tololo Observatory, La Serena.  Observers T. Linder, R. Holmes.
    0.61-m f/6.8 Ritchey-Chretien + CCD.
958 Observatoire de Dax.  Observer P. Dupouy.  0.50-m f/4.5 Reflector + CMO.
E94 Possum Observatory, Gisborne.  Observer J. Drummond.  0.41-m f/4.5
    reflector + CCD.
H36 Sandlot Observatory, Scranton.  Observer G. Hug.  0.56-m f/4.25 reflector
    + CMO.
I93 St Pardon de Conques.  Observer F. Losse.  0.40-m f/3.7 reflector + CMO.
L01 Visnjan Observatory, Tican.  Observer K. Korlevic.  1.0-m f/2.9 reflector
    + CCD.
M22 ATLAS South Africa, Sutherland.  Observers L. Denneau, R. Siverd, J.
    Tonry, H. Weiland.  Measurers L. Denneau, N. Erasmus, A. Fitzsimmons, J.
    Robinson, R. Siverd, J. Tonry, H. Weiland.  0.5-m Reflector + CCD.
M49 IAS Remote Observatory, Hakos.  Observers D. Husar, M. Junius, T.
    Steinbach, L. Demetz, P. Ditz, R. Hellot.  Measurer D. Husar.  0.25-m
    f/4.5 reflector + CMO.
W68 ATLAS Chile, Rio Hurtado.  Observers L. Denneau, R. Siverd, J. Tonry, H.
    Weiland.  Measurers L. Denneau, N. Erasmus, A. Fitzsimmons, J. Robinson,
    R. Siverd, J. Tonry, H. Weiland.  0.5-m Reflector + CCD.
X09 Deep Random Survey, Rio Hurtado.  Observers A. Schnabel, D. Ruhela.
    Measurer S. Deen.  0.43-m reflector + CMOS.
Orbital elements:
2024 MT1                                                 Earth MOID = 0.0093 AU
Epoch 2024 Mar. 31.0 TT = JDT 2460400.5                 Veres                   
M 232.07255              (2000.0)            P               Q                  
n   0.81309792     Peri.  119.78690     +0.74064359     -0.66036454             
a   1.1368613      Node   281.84021     +0.56442564     +0.71158362             
e   0.5708561      Incl.    7.27625     +0.36451444     +0.23993212             
P   1.21           H   23.01          G   0.15           U   8                  
Residuals in seconds of arc
240629 W68  0.3-  0.4+    240630 E94  0.3-  0.3-    240701 958  0.1-  0.2+
240629 W68  0.2+  0.2+    240630 M49  0.1-  0.0     240701 I93  0.1+  0.1-
240629 W68  0.5-  0.8-    240630 M49  0.1-  0.1-    240701 I93  0.0   0.2-
240629 W68  0.9+  0.3+    240630 M49  0.1-  0.1+    240701 I93  0.0   0.3-
240630 X09  0.3+  0.3-    240630 L01  0.3-  0.1+    240701 M22  0.7+  0.4+
240630 X09  0.0   0.1+    240630 L01  0.4-  0.4+    240701 M22  0.3-  0.4+
240630 H36  0.3+  0.0     240630 L01  0.3+  0.5+    240701 M22  0.1+  0.6+
240630 H36  0.1+  0.1+    240630 L01  0.6-  0.2+    240701 807  0.1+  0.0
240630 H36  0.4+  0.1+    240630 L01  0.9-  0.0     240701 807  0.1+  0.1+
240630 H36  0.0   0.4-    240701 958  0.4+  0.7+    240701 807  0.1-  0.1-
240630 E94  0.1-  0.2-    240701 958  0.5+  0.0     240701 807  0.1+  0.0
240630 E94  0.4-  0.3-    240701 I93  0.1+  0.0
Ephemeris:
2024 MT1                 a,e,i = 1.14, 0.57, 7                   q = 0.4879
Date    TT    R. A. (2000) Decl.     Delta      r    Elong.  Phase     V
2024 06 01    19 52 21.3 -28 43 12   0.4163  1.3431   135.5    31.9    23.1
...
2024 06 16    19 59 51.1 -27 58 14   0.2382  1.2242   147.9    26.2    21.5
...
2024 06 24    19 59 17.3 -26 52 30   0.1495  1.1540   155.4    21.5    20.2
...
2024 06 30    19 53 10.9 -24 32 20   0.08525 1.0982   162.4    16.2    18.7
2024 07 01    19 50 54.7 -23 45 26   0.07473 1.0887   163.9    15.0    18.4
2024 07 02    19 47 52.8 -22 43 04   0.06427 1.0790   165.5    13.7    18.0
...
2024 07 08    16 36 39.8 +41 21 03   0.01009 1.0197   107.0    72.4    15.6
...
2024 07 16    08 31 21.8 +35 13 53   0.08398 0.9367    17.6   160.9    28.8
...
2024 07 31    08 16 09.1 +30 46 51   0.2530  0.7717    13.8   161.8    31.1
M. P. C. Staff               (C) Copyright 2024 MPC           M.P.E.C. 2024-N05
    
    
More information about the Iaude
mailing list